Location: Glencliff
(36.1226°N, 86.7183°W)
Time: 04:41:37
(UTC+00:00)

Unknown - Pass Details

Date: 25 August 2019
Orbit: 548 x 551 km, 53.0° (Epoch: 22 September)

Event Time Altitude Azimuth Distance (km) Brightness Sun altitude
Rises 01:22:54 0° 308° (NW) 2,720 8.8 -11.8°
Reaches altitude 10° 01:25:10 10° 304° (WNW) 1,824 7.7 -12.2°
Maximum altitude 01:29:11 51° 228° (SW) 697 4.3 -12.9°
Enters shadow 01:32:30 14° 155° (SSE) 1,552 5.5 -13.5°
